Journée Demi-fond

Compétition Départementale

ANGERS

Le Dimanche 29 Octobre 2017

Bassin de 25m

400 4 Nages Dames

Séries

Nom Année Temps Pts Club Pays
1 COUSSEAU Solene 2003 5:19:84 1007 ANGERS NATATION FRA
2 CORABOEUF Coline 2002 5:22:78 988 ANGERS NATATION FRA
3 BERTRAND Léa 2000 5:29:51 944 ANGERS NATATION FRA
4 CORVAISIER Louise 2002 5:32:75 923 ANGERS NATATION FRA
5 CLAUDIC-TCHA Maëllys 2006 5:36:42 900 ANGERS NATATION FRA
6 CULTY Louise 2003 5:36:50 900 ANGERS NATATION FRA
7 QUIGNON Carla 2003 5:37:88 891 ANGERS NATATION FRA
8 PILLET Lola 1999 5:39:21 883 ANGERS NATATION FRA
9 POIROUX Emma 2004 5:45:69 843 ANGERS NATATION FRA
10 VIGET Leïla 2000 5:48:34 827 ANGERS NATATION FRA
11 CLAUDEL Lélia 2002 5:49:73 819 ES SEGRÉ FRA
12 COVILLON Romance 2003 5:52:67 801 ANGERS NATATION FRA
13 AUBIN Eleanore 2006 5:57:01 776 ANGERS NATATION FRA
14 LABRUGERE Camille 2003 5:57:28 774 ANGERS NATATION FRA
15 BREHERET Lili-Rose 2005 5:58:97 765 ANGERS NATATION FRA
16 DEROUET Ilona 2004 6:02:74 743 ANGERS NATATION FRA
17 DELAIN Céleste 2006 6:07:98 714 ANGERS NATATION FRA
18 VIGET Salina 2004 6:11:46 694 ANGERS NATATION FRA
19 GODINEAU Jeanne 2004 6:11:87 692 CN BEAUPREAU FRA
20 MARKOWICZ Keren 2004 6:12:86 687 ANGERS NATATION FRA
21 MIOT Charline 1983 6:15:85 670 AS AVRILLÉ NATATION FRA
22 MICHEL Cassandre 2005 6:19:59 650 ANGERS NATATION FRA
23 BRIDON Apolline 2003 6:26:50 614 CN BEAUPREAU FRA
24 LEMERCIER Lexanne 2004 6:28:16 606 CN BEAUPREAU FRA
25 LARDEUX Ilona 2005 6:31:36 589 ES SEGRÉ FRA
26 DURAND Elea 2004 6:36:13 565 CN BEAUPREAU FRA
27 LEPRETRE Armelle 2004 6:42:24 535 ES SEGRÉ FRA
28 BONDU Lilirose 2005 6:44:97 522 CN BEAUPREAU FRA
29 TROTTIER Emma 2005 6:50:80 495 ES SEGRÉ FRA
30 BURON Louane 2005 6:53:20 484 ES SEGRÉ FRA
31 VAIMATAPAKO Lena 2007 7:08:59 416 ANGERS NATATION FRA
32 JILOT Lilou 2004 7:09:75 411 ES SEGRÉ FRA
33 COIFFARD Angèle 2005 7:11:10 405 CN BEAUPREAU FRA
34 AGNES Auriane 2005 7:24:10 352 ANGERS NATATION FRA
35 LECHAT Sidney 2006 7:24:52 351 CN BEAUPREAU FRA
36 TROTTIER Lila 2005 7:27:47 339 ES SEGRÉ FRA
37 CHALANGE Constance 2007 7:36:33 306 ANGERS NATATION FRA
SAUMUR NATATION